Location: Larressingle
(43.9438°N, 0.3116°E)
Time: 05:40:53
(UTC+00:00)

Daily predictions for brighter satellites

Satellite Brightness Start Highest point End
(mag) Time Altitude Azimuth Time Altitude Azimuth Time Altitude Azimuth
Cosmos 2074 Rocket 4.5 00:04:05 10° N 00:08:59 57° N 00:08:59 57° N
ATLAS 5 CENTAUR R/B 4.2 00:17:48 10° NNW 00:22:11 24° NE 00:27:08 10° E
USA 281 3.4 00:29:00 67° NNW 00:29:00 67° NNW 00:34:35 10° NNW
Nadezhda 1 Rocket 4.3 00:35:58 64° N 00:35:58 64° N 00:41:16 10° N
SL-16 R/B 3.6 00:48:09 35° E 00:49:22 38° ENE 00:55:03 10° N
Cosmos 2263 Rocket 4.4 00:49:09 14° WNW 00:50:32 15° NW 00:53:39 10° N
Cosmos 1844 Rocket 3.7 01:04:03 39° NNW 01:04:03 39° NNW 01:08:23 10° NNE
Cosmos 1238 Rocket 4.3 01:00:51 10° N 01:07:09 60° E 01:07:15 60° E
SL-4 R/B 3.9 01:11:02 34° NNE 01:11:02 34° NNE 01:15:00 10° ENE
Cosmos 2082 Rocket 3.8 01:15:02 10° N 01:19:57 30° NE 01:23:49 15° ESE
Resurs 1-4 Rocket 2.7 01:21:34 10° NNE 01:25:56 54° ENE 01:25:56 54° ENE
Cosmos 1833 Rocket 3.0 01:22:51 10° NNW 01:28:24 62° ENE 01:28:24 62° ENE
BREEZE-M R/B 4.2 01:33:23 48° NNE 01:33:23 48° NNE 01:39:03 10° ENE
Cosmos 2341 Rocket 4.3 01:30:01 10° NNW 01:35:29 57° WNW 01:35:29 57° WNW
CZ-2D R/B 2.3 01:32:42 10° NNE 01:37:41 70° NE 01:37:41 70° NE
Cosmos 2181 Rocket 3.9 01:38:48 78° WNW 01:38:48 78° WNW 01:44:54 10° N
Cosmos 2278 Rocket 2.3 01:44:17 73° ENE 01:44:17 73° ENE 01:49:32 10° NNE
USA 234 3.5 01:39:43 10° ENE 01:46:07 53° SE 01:46:23 52° SE
SJ 16-02 2.5 01:47:37 42° NNE 01:47:37 42° NNE 01:50:36 10° NNE
SL-8 Rocket 4.1 01:43:11 10° NNW 01:48:53 60° WNW 01:48:53 60° WNW
Cosmos 1943 Rocket 4.4 01:47:44 13° ESE 01:49:47 16° E 01:53:00 10° ENE
Gbstr 26 Del rocket 3.8 01:51:53 67° NW 01:52:11 69° NNW 01:57:29 10° NE
BREEZE-M DEB (TANK) 4.0 01:45:14 10° WNW 01:52:42 53° NNW 01:52:42 53° NNW
Cosmos 158 Rocket 4.3 01:51:14 10° NNW 01:55:06 55° N 01:55:06 55° N
Okean 1-7 4.2 01:57:13 38° ENE 01:57:13 38° ENE 02:00:42 10° NNE
Meteor 2-9 Rocket 4.2 01:51:16 10° N 01:57:11 87° W 01:57:12 87° WSW
ADEOS II 2.4 01:56:20 10° NNE 02:01:31 57° E 02:01:52 56° ESE
COSMOS 2406 3.4 01:57:22 10° NNW 02:02:05 59° WNW 02:02:05 59° WNW
Cosmos 1975 4.3 02:01:51 10° N 02:04:06 32° N 02:04:06 32° N
ATLAS 5 CENTAUR R/B 2.2 02:01:42 10° NW 02:07:25 86° SW 02:09:46 42° SSE
Cosmos 1898 Rocket 3.9 02:08:04 51° ESE 02:08:28 52° ESE 02:13:35 10° NNE
NPP 3.7 02:11:13 10° N 02:16:32 63° WNW 02:16:37 63° WNW
ARGOS Delta rocket 3.8 02:15:36 10° NNE 02:19:56 66° E 02:19:56 66° E
DELTA 2 DEB (DPAF) 4.2 02:21:55 69° NNW 02:21:55 69° NNW 02:25:51 10° NNW
AQUA 4.0 02:18:46 10° N 02:23:10 60° NW 02:23:10 60° NW
Cosmos 2242 Rocket 3.6 02:23:59 73° N 02:23:59 73° N 02:28:00 10° N
CBERS-1 4.2 02:20:00 10° NNE 02:25:05 64° ESE 02:26:03 53° SSE
IDEFIX/ARIANE 42P 3.3 02:21:23 10° NNE 02:26:26 47° E 02:28:15 34° SSE
CZ-4C R/B 3.0 02:19:08 10° NW 02:26:28 82° NE 02:34:56 10° SE
Cosmos 2112 Rocket 4.1 02:23:03 10° NNW 02:28:23 77° ENE 02:30:48 34° SSE
Cosmos 2239 Rocket 4.5 02:22:13 10° N 02:28:27 80° E 02:31:24 34° SSE
CZ-4C R/B 3.8 02:28:03 58° ESE 02:28:39 67° ENE 02:33:04 10° N
SL-16 R/B 3.1 02:33:14 39° W 02:33:14 39° W 02:38:43 10° NNW
IRS-1D 3.4 02:28:04 10° NNE 02:33:16 89° WNW 02:34:11 62° SSW
Cosmos 1378 3.5 02:40:01 58° E 02:40:01 58° E 02:43:35 10° NNE
NOSS 3-4 (A) 4.2 02:33:09 10° NNW 02:40:08 67° NE 02:47:54 10° SE
NOSS 3-4 (C) 4.2 02:33:15 10° NNW 02:40:14 67° NE 02:48:00 10° SE
Meteor 1-13 Rocket 4.4 02:40:01 37° S 02:42:24 72° E 02:48:05 10° NNE
Cosmos 1821 Rocket 4.0 02:37:09 10° NNW 02:43:26 66° W 02:45:36 42° SSW
Cosmos 1908 Rocket 4.3 02:41:56 10° NNW 02:45:16 38° WNW 02:45:16 38° WNW
Helios 1B rocket 4.4 02:44:23 10° NNW 02:46:37 18° NW 02:46:37 18° NW
Meteor 2-4 Rocket 4.0 02:49:17 45° WSW 02:50:35 53° WNW 02:56:23 10° N
SL-4 R/B 2.4 02:46:39 14° WNW 02:50:46 79° NNE 02:55:33 10° ESE
Cosmos 1805 4.5 02:49:22 10° N 02:53:05 40° ENE 02:56:18 13° SE
FALCON 9 DEB 3.7 02:54:08 49° ENE 02:54:08 49° ENE 02:56:48 10° ESE
DELTA 2 R/B (1) 3.7 02:52:49 49° SW 02:53:46 55° S 02:59:12 10° E
Cosmos 1356 Rocket 4.1 02:50:15 10° N 02:54:17 53° ENE 02:57:26 16° SSE
ATLAS 2AS CENTAUR R/B 3.6 02:47:15 10° NNW 02:54:29 53° NE 03:01:10 10° ESE
X-37B 1.4 02:56:51 46° E 02:56:51 46° E 02:59:17 10° E
MSX 4.1 02:52:48 10° NNE 02:58:33 67° ESE 03:02:10 23° S
CZ-4B R/B 3.6 02:54:16 10° NNE 02:59:01 67° ESE 03:01:16 31° S
Cosmos 1535 Rocket 4.4 02:54:17 10° N 03:00:27 87° E 03:06:16 12° S
Cosmos 2084 3.2 03:00:34 63° SW 03:01:13 87° NW 03:05:29 10° NE
FALCON 9 DEB 3.6 03:02:30 45° ESE 03:02:30 45° ESE 03:04:47 10° ESE
Nadezhda 3 Rocket 4.3 03:00:33 37° SW 03:02:38 51° WNW 03:08:48 10° N
Cosmos 1680 Rocket 3.8 02:57:45 10° NNW 03:02:49 46° WSW 03:03:41 42° SW
Spot 1 4.1 03:03:22 51° W 03:03:22 51° W 03:07:31 10° NNW
Cosmos 2082 Rocket 2.4 02:58:52 10° NW 03:04:12 45° WSW 03:05:33 38° SW
Resurs 1-4 Rocket 3.6 03:02:27 10° NNW 03:06:08 20° WNW 03:07:01 19° WNW
SL-08 R/B 3.5 03:03:57 10° SSE 03:08:50 76° ENE 03:13:41 10° N
Cosmos 1833 Rocket 4.3 03:07:51 10° NW 03:10:02 17° WNW 03:10:02 17° WNW
Meteor 1-28 Rocket 4.4 03:14:51 26° WNW 03:14:51 26° WNW 03:17:09 10° NNW
FALCON 9 DEB 3.1 03:15:20 55° SSE 03:15:20 55° SSE 03:17:52 10° SE
Cosmos 1782 Rocket 4.0 03:10:37 10° NNW 03:14:48 40° W 03:15:13 39° WSW
Cosmos 2151 Rocket 4.4 03:10:57 10° N 03:15:24 54° ENE 03:19:50 10° SSE
ADEOS Rocket 3.3 03:11:24 21° S 03:15:40 56° W 03:22:36 10° NNW
ERS-1 4.4 03:10:59 10° NNE 03:15:59 84° ESE 03:19:03 24° SSW
CZ-2D R/B 3.9 03:14:07 10° NNW 03:17:36 17° WNW 03:19:01 16° WNW
Okean 2 Rocket 3.1 03:15:38 10° N 03:20:06 78° E 03:24:29 10° SSE
COSMOS 2441 4.3 03:15:27 10° NNE 03:20:20 89° E 03:23:25 23° SSW
Cosmos 1300 Rocket 3.5 03:16:57 10° N 03:21:25 82° W 03:25:07 15° S
Cosmos 1934 Rocket 4.1 03:18:27 10° NNW 03:24:36 57° W 03:29:33 16° SSW
Cosmos 2221 Rocket 3.5 03:22:37 24° S 03:25:18 88° W 03:29:52 10° N
IRS-P3 4.2 03:20:03 10° N 03:25:20 64° WNW 03:28:23 26° SW
SJ 16-02 3.7 03:24:53 10° WNW 03:25:29 10° NW 03:26:03 10° NW
CZ-2D R/B 3.5 03:22:23 10° NNE 03:26:33 80° ESE 03:29:20 21° S
Cosmos 2278 Rocket 3.9 03:26:08 15° W 03:28:37 20° NW 03:32:41 10° N
USA 234 3.7 03:22:47 10° NE 03:29:08 55° NNW 03:33:43 19° W
Okean 3 4.1 03:28:13 32° WSW 03:29:18 37° WNW 03:33:20 10° N
Cosmos 1842 4.2 03:28:24 10° SSE 03:32:07 47° E 03:35:51 10° NNE
Cosmos 1943 Rocket 2.2 03:29:16 24° SSW 03:32:47 78° WNW 03:38:28 10° NNE
Meteor 1-15 Rocket 4.1 03:27:17 10° NNW 03:32:51 72° W 03:38:24 10° S
FALCON 9 DEB 2.7 03:32:07 38° WNW 03:33:03 61° SW 03:36:07 10° SE
ADEOS II 3.6 03:36:56 10° NNW 03:40:47 21° WNW 03:42:48 17° W
CZ-2C R/B 2.8 03:38:57 10° NNE 03:43:42 65° ESE 03:48:36 10° S
Cosmos 1937 Rocket 4.4 03:43:17 21° WSW 03:45:45 32° WNW 03:50:21 10° N
Cosmos 1605 Rocket 4.0 03:40:27 10° NNW 03:46:26 60° W 03:52:28 10° S
Okean 1 Rocket 3.9 03:42:05 10° N 03:46:31 54° ENE 03:50:50 10° SSE
ARIANE 5 R/B 2.8 03:42:39 10° N 03:47:43 51° WNW 03:51:31 17° SW
Meteor 1-23 Rocket 4.4 03:46:17 16° SSW 03:50:48 56° WNW 03:56:29 10° N
ATLAS 5 CENTAUR R/B 3.8 03:47:54 10° WNW 03:50:59 17° WSW 03:50:59 17° WSW
Cosmos 2369 Rocket 2.2 03:48:56 12° SSW 03:54:07 86° ESE 03:59:46 10° NNE
CZ-2C R/B 2.7 03:50:31 10° NNE 03:54:19 85° E 03:58:10 10° SSW
Spot 4 Rocket 4.1 03:53:04 10° N 03:58:11 65° WNW 04:03:17 10° SSW
Cosmos 494 Rocket 4.4 03:55:46 10° NNW 04:01:01 68° ENE 04:06:11 10° SSE
Cosmos 1900 4.5 03:57:04 12° SSW 04:01:47 83° ESE 04:06:54 10° NE
Cosmos 2298 Rocket 4.0 03:57:10 10° SSW 04:02:29 83° WNW 04:07:49 10° NNE
ALOS 3.0 03:58:03 10° NNE 04:02:38 53° E 04:07:11 10° S
PAYLOAD A 3.9 03:58:32 10° N 04:03:40 76° WNW 04:08:33 10° SSW
Cosmos 2100 Rocket 4.2 03:58:21 10° N 04:04:33 77° E 04:10:47 10° SSE
IDEFIX/ARIANE 42P 3.8 04:01:35 10° N 04:05:43 24° WNW 04:09:03 14° WSW
Cosmos 1766 3.8 04:02:41 10° NNW 04:06:23 38° W 04:10:05 10° SSW
Cosmos 1378 Rocket 3.5 04:04:03 10° SSW 04:08:26 68° W 04:12:51 10° N
CZ-4C R/B 3.9 04:08:35 10° WNW 04:14:41 26° WSW 04:21:20 10° SSW
Cosmos 2173 Rocket 4.0 04:09:47 10° N 04:15:55 87° E 04:22:02 10° S
Cosmos 1674 Rocket 4.1 04:17:42 10° SSW 04:21:48 40° WNW 04:25:57 10° N
Meteor 1-22 Rocket 4.5 04:17:47 10° NNW 04:23:11 49° W 04:28:44 10° SSW
FENGYUN 3A 3.7 04:20:51 10° NNE 04:26:16 86° WNW 04:31:38 10° SSW
Cosmos 44 3.6 04:20:48 10° NW 04:26:17 87° ENE 04:31:33 10° SE
Cosmos 1727 Rocket 4.3 04:20:45 10° SSW 04:26:43 48° WNW 04:32:48 10° N
Cosmos 1125 Rocket 3.5 04:21:46 10° SSW 04:27:02 70° WNW 04:32:18 10° NNE
SL-24 R/B 3.7 04:23:19 10° S 04:27:24 72° WSW 04:31:10 10° NNW
FALCON 9 DEB 4.4 04:27:08 10° W 04:29:19 18° SW 04:31:29 10° S
SL-4 R/B 3.4 04:26:13 10° WNW 04:30:07 25° SW 04:33:56 10° S
Cosmos 1459 Rocket 4.0 04:23:57 10° N 04:30:20 76° W 04:36:38 10° S
X-37B 0.8 04:29:36 10° W 04:32:47 69° N 04:35:57 10° E
Cosmos 1470 2.8 04:30:04 10° NNW 04:33:51 54° W 04:37:37 10° S
USA 306 4.3 04:33:32 10° NW 04:37:37 40° NNE 04:41:41 10° E
RESURS DK-1 3.9 04:35:26 10° NNW 04:39:25 43° ENE 04:43:23 10° SE
Cosmos 1656 Rocket 3.7 04:34:08 10° SW 04:39:30 67° WNW 04:44:57 10° NNE
DELTA 2 R/B (1) 4.1 04:34:34 10° W 04:39:50 44° SSW 04:45:05 10° SE
